Terminal Aerodrome Forecast
Issued by NWS

Home | Current Version | Previous Version | Text Only | Print | Product List | Glossary On
Versions: 1 2 3 4 5 6 7 8 9 10 11 12 13 14 15 16 17
000
FTUS41 KBTV 230500
TAFRUT
TAF
KRUT 230528Z 2306/2406 13005KT P6SM VCSH SCT020 OVC040
     FM230800 VRB03KT 6SM BR OVC020
      TEMPO 2308/2311 2SM BR BKN010
     FM231300 VRB03KT P6SM BKN030
     FM231600 05006KT P6SM BKN040
     FM240000 13004KT P6SM SCT040
      AMD LTD TO CLD VIS AND WIND=

USA.gov is the U.S. government's official web portal to all federal, state and local government web resources and services.